Flag for U.S.A. Weather past 2 weeks in Breckenridge, Colorado, U.S.A.

Now
4 °F

Light snow. Ice fog.


Feels Like: -3 °F
Forecast: 12 / 20 °F
Wind: 3 mph from Southwest

Location: Lake County Airport

Current Time: Dec 26, 2014 at 7:32:51 AM

Latest Report: Dec 26, 2014 at 7:00 AM


Visibility: 1 mi

Pressure: 29.64 "Hg

Humidity: 88%

Dew point: 1 °F

Location of BreckenridgeLocation

Historic Weather in Breckenridge — Graph

°F

Breckenridge temperature yesterday

Maximum temperature yesterday: 26 °F (at 11:53 AM)
Minimum temperature yesterday: 12 °F (at 8:53 AM)
Average temperature yesterday: 17 °F

Past Weeks' High & Low Weather Summary

 TemperatureHumidityPressure
High44 °F (Dec 11, 11:53 AM)96% (Dec 14, 12:04 AM)30.33 "Hg (Dec 14, 12:04 AM)
Low-4 °F (Dec 23, 10:53 PM)17% (Dec 11, 11:53 AM)29.33 "Hg (Dec 25, 11:53 AM)
Average19 °F70%29.92 "Hg
* Reported Dec 11 5:53 AM — Dec 26 5:53 AM, Breckenridge, Weather by CustomWeather, © 2014

Note: Actual official high and low records may vary slightly from our data, if they occured in-between our weather recording intervals... More about our weather records

Advertising

Breckenridge weather history for previous 24 hours

 ConditionsComfort  
Time TempWeatherWind HumidityBarometerVisibility
5:53 AM
Dec 26
5 °FMostly cloudy.No wind87%29.65 "Hg10 mi
4:53 AM7 °FIce fog.10 mph87%29.63 "Hg6 mi
3:53 AM9 °FLight snow. Ice fog.6 mph88%29.56 "Hg1 mi
2:53 AM8 °FMostly cloudy.No wind87%29.56 "Hg10 mi
1:53 AM10 °FOvercast.No wind76%29.54 "Hg10 mi
12:53 AM12 °FMostly cloudy.5 mph88%29.52 "Hg10 mi
12:01 AM13 °FLight snow. Ice fog.3 mph88%29.56 "Hg4 mi
10:53 PM
Dec 25
14 °FLight snow. Mostly cloudy.No wind92%29.54 "Hg7 mi
9:53 PM15 °FLight snow. Ice fog.9 mph87%29.55 "Hg5 mi
8:53 PM16 °FLight snow. Mostly cloudy.13 mph80%29.56 "Hg9 mi
7:53 PM13 °FPassing clouds.No wind77%29.56 "Hg10 mi
6:53 PM15 °FMostly cloudy.7 mph67%29.53 "Hg10 mi
5:53 PM18 °FMostly cloudy.5 mph59%29.49 "Hg10 mi
4:53 PM17 °FClear.7 mph62%29.47 "Hg10 mi
3:53 PM24 °FPartly sunny.9 mph50%29.41 "Hg10 mi
2:53 PM23 °FPartly sunny.14 mph68%29.39 "Hg10 mi
1:57 PM21 °FLight snow. Mostly cloudy.8 mph74%29.46 "Hg3 mi
12:53 PM21 °FPassing clouds.12 mph68%29.39 "Hg10 mi
11:53 AM26 °FBroken clouds.12 mph50%29.33 "Hg10 mi
10:53 AM19 °FPassing clouds.8 mph71%29.40 "Hg10 mi
9:53 AM16 °FPartly sunny.7 mph87%29.44 "Hg10 mi
8:53 AM12 °FPartly sunny.No wind88%29.46 "Hg10 mi
7:53 AM13 °FMostly cloudy.3 mph88%29.44 "Hg10 mi
Weather by CustomWeather, © 2014

See weather overviewHow to use our weather pages